sat.trackr.live / text

‹ back to catalog

STARLINK-34225

NORAD 64414 · 2025-129C

PAYLOAD ACTIVE UNKNOWN

§ Identity

Operator
Country
US
Launch date
2025-06-17
Launch site
AFWTR
Launch vehicle
Mass (kg)
RCS (m²)

Purposes: comms

External: N2YO · Heavens-Above · Gunter

§ Orbital elements

Epoch: 2026-05-25T00:07:59.528640Z

Period
96.11 min
Inclination
70.0006°
Eccentricity
0.0003462
Mean motion
14.98332855 rev/d
Perigee alt
569.6 km
Apogee alt
574.5 km
Semi-major
6,950.2 km
B*
1.6154e-4
RAAN
242.2318°
Arg perigee
269.5790°
Mean anomaly
90.4973°
Rev number
5,271

§ Raw data

STARLINK-342251 64414U 25129C   26145.00555010  .00001835  00000+0  16154-3 0  99982 64414  70.0006 242.2318 0003462 269.5790  90.4973 14.98332855 52714

JSON: /api/v1/satellites/64414 · /tle

For live sub-satellite position, see the globe view (requires WebGL).

§ Visibility from observer

Set your observer location to see the next 7 days of passes ≥ 10°. The values pass through the URL so the page stays shareable.

No JS? Fill the form by hand. The geolocation button needs JavaScript.